Regional Weather Roundup
Issued by NWS

Home | Current Version | Previous Version | Graphics & Text | Print | Product List | Glossary On
Versions: 1 2 3 4 5 6 7 8 9 10 11 12 13 14 15 16 17 18 19 20 21 22 23 24 25 26 27 28 29 30 31 32 33 34 35 36 37 38 39 40 41 42 43 44 45 46 47 48 49 50
000
ASUS43 KFSD 200402
RWRSD

WEATHER ROUNDUP FOR SOUTH DAKOTA
NATIONAL WEATHER SERVICE SIOUX FALLS SD
1100 PM CDT WED JUL 19 2017

NOTE: "FAIR" INDICATES FEW OR NO CLOUDS BELOW 12,000 FEET WITH NO
SIGNIFICANT WEATHER AND/OR OBSTRUCTIONS TO VISIBILITY.


SDZ001>005-009-010-012>017-200500-
NORTHWEST AND NORTH CENTRAL SOUTH DAKOTA

CITY           SKY/WX    TMP DP  RH WIND       PRES   REMARKS
BUFFALO          N/A     76  55  48 SE10      30.00R
FAITH            N/A     72  60  66 E8        30.04R
MOBRIDGE       CLOUDY    75  66  73 NE10      29.96R
$$

SDZ012>016-024>037-041>051-057-063-072>074-200500-
SOUTHWEST AND SOUTH CENTRAL SOUTH DAKOTA

CITY           SKY/WX    TMP DP  RH WIND       PRES   REMARKS
RAPID CTY ARPT MOCLDY    75  57  53 N9        30.05R
PIERRE         MOCLDY    80  70  71 NE12      29.95R
CUSTER         CLOUDY    71  51  49 NE15      30.22R
ELLSWORTH AFB  CLOUDY    80  57  45 N8        30.06R
PHILIP         PTCLDY    78  68  71 E8        29.99R
PINE RIDGE     CLOUDY    82  60  47 NE13      30.04R
SPEARFISH      FAIR      70  59  68 E7        30.12R
WINNER         FAIR      78  67  68 W3        29.95R
$$

SDZ004>011-016>023-039-040-200500-
NORTHEAST SOUTH DAKOTA

CITY           SKY/WX    TMP DP  RH WIND       PRES   REMARKS
ABERDEEN       PTCLDY    72  71  97 NE3       29.96R
WATERTOWN      CLEAR     71  70  96 N9        29.94S
BROOKINGS      TSTM      73  70  90 NE5       29.93R
SISSETON         N/A     70  69  97 SW3       29.95R
$$

SDZ017-020-022-023-036>040-048>070-200500-
SOUTHEAST SOUTH DAKOTA

CITY           SKY/WX    TMP DP  RH WIND       PRES   REMARKS
SIOUX FALLS    CLOUDY    76  74  93 CALM      29.88R
HURON          CLOUDY    79  74  84 N10       29.93R
CHAMBERLAIN    MOCLDY    82  68  62 CALM      29.94R
MITCHELL       CLOUDY    79  76  90 NW5       29.91R
YANKTON        CLOUDY    84  75  74 CALM      29.88R
$$

ABBREVIATIONS USED IN REMARKS
   TC - TEMPERATURE IN CELSIUS
  WCI - WIND CHILL INDEX
   HX - HEAT INDEX
  VSB - VISIBILITY





USA.gov is the U.S. government's official web portal to all federal, state and local government web resources and services.